FW8343 Weather Reports


Display with metric or nautical units.
time (UTC)temp
F
wind
direction
speed
MPH
gust
MPH
rain 1hr
in
rain 24hr
in
rain mn
in
humidity
%
barometer
mb
20260505181012 40 261 2.0 9.0 0.00 0.00 0.00 55 1009.4
20260505180514 40 271 3.0 11.0 0.00 0.00 0.00 56 1009.4
20260505180029 39 265 4.0 11.0 0.00 0.00 0.00 57 1009.5
20260505175509 39 260 4.0 11.0 0.00 0.00 0.00 57 1009.5
20260505175010 38 262 4.0 13.0 0.00 0.00 0.00 58 1009.5
20260505174529 38 255 7.0 13.0 0.00 0.00 0.00 56 1009.5
20260505174009 38 271 5.0 10.0 0.00 0.00 0.00 57 1009.5
20260505173513 38 264 3.0 9.0 0.00 0.00 0.00 59 1009.5
20260505173028 38 265 2.0 9.0 0.00 0.00 0.00 59 1009.4
20260505172516 38 264 4.0 11.0 0.00 0.00 0.00 58 1009.4
20260505172014 37 275 3.0 11.0 0.00 0.00 0.00 60 1009.4
20260505171530 37 275 5.0 11.0 0.00 0.00 0.00 60 1009.4
20260505171011 37 311 2.0 11.0 0.00 0.00 0.00 62 1009.5
20260505170514 36 274 4.0 11.0 0.00 0.00 0.00 62 1009.4
20260505170030 36 254 4.0 11.0 0.00 0.00 0.00 61 1009.5
20260505165509 37 277 4.0 11.0 0.00 0.00 0.00 63 1009.4
20260505165014 36 309 1.0 8.0 0.00 0.00 0.00 63 1009.2
20260505164545 36 265 3.0 9.0 0.00 0.00 0.00 62 1009.2
20260505164011 36 259 3.0 9.0 0.00 0.00 0.00 63 1009.3
20260505163510 36 266 4.0 9.0 0.00 0.00 0.00 63 1009.1
20260505163030 36 277 3.0 11.0 0.00 0.00 0.00 63 1009.2
20260505162510 36 227 3.0 11.0 0.00 0.00 0.00 63 1009.1
20260505162014 36 268 3.0 10.0 0.00 0.00 0.00 62 1009.1
20260505161527 36 272 3.0 10.0 0.00 0.00 0.00 63 1009.1
20260505161011 36 294 4.0 10.0 0.00 0.00 0.00 62 1009.1
20260505160511 36 268 4.0 10.0 0.00 0.00 0.00 63 1009.1
20260505153032 36 290 3.0 8.0 0.00 0.00 0.00 60 1008.5
20260505152512 36 0 2.0 10.0 0.00 0.00 0.00 61 1008.4
20260505152010 36 282 4.0 14.0 0.00 0.00 0.00 60 1008.4
20260505151531 37 288 5.0 14.0 0.00 0.00 0.00 60 1008.4
20260505151010 37 263 2.0 7.0 0.00 0.00 0.00 61 1008.2
20260505150513 37 273 2.0 14.0 0.00 0.00 0.00 62 1008.1
20260505140512 38 231 2.0 9.0 0.00 0.00 0.00 64 1007.5
20260505125012 34 331 2.0 10.0 0.00 0.00 0.00 71 1007.0
20260505124539 34 230 4.0 9.0 0.00 0.00 0.00 70 1006.9
20260505124010 34 328 2.0 10.0 0.00 0.00 0.00 71 1006.7
20260505123513 33 281 2.0 10.0 0.00 0.00 0.00 71 1006.7
20260505123031 33 285 3.0 10.0 0.00 0.00 0.00 72 1006.6
20260505122507 33 333 4.0 9.0 0.00 0.00 0.00 72 1006.6
20260505122015 33 265 5.0 9.0 0.00 0.00 0.00 73 1006.5
20260505121535 33 278 4.0 11.0 0.00 0.00 0.00 73 1006.4
20260505121011 33 285 3.0 11.0 0.00 0.00 0.00 74 1006.5
20260505120511 33 263 3.0 10.0 0.00 0.00 0.00 77 1006.4
20260505120037 33 327 2.0 9.0 0.00 0.00 0.00 78 1006.3
20260505115509 33 281 2.0 9.0 0.00 0.00 0.00 79 1006.2
20260505115012 33 296 3.0 9.0 0.00 0.00 0.00 79 1006.2
20260505114530 33 267 2.0 11.0 0.00 0.00 0.00 80 1006.0
20260505114011 33 281 3.0 11.0 0.00 0.00 0.00 80 1006.1
20260505113511 33 272 4.0 11.0 0.00 0.00 0.00 80 1006.0
20260505113032 33 266 4.0 10.0 0.00 0.00 0.00 79 1006.0
20260505112510 34 315 3.0 10.0 0.00 0.00 0.00 79 1006.1
20260505112010 34 278 2.0 8.0 0.00 0.00 0.00 77 1006.0
20260505111529 34 271 2.0 8.0 0.00 0.00 0.00 76 1005.9
20260505111015 34 274 3.0 8.0 0.00 0.00 0.00 76 1005.8
20260505110511 34 262 2.0 7.0 0.00 0.00 0.00 76 1005.7
20260505102012 34 263 2.0 7.0 0.00 0.00 0.00 76 1005.2
20260505101532 34 231 2.0 7.0 0.00 0.00 0.00 76 1005.1
20260505101013 34 271 1.0 7.0 0.00 0.00 0.00 75 1005.0
20260505100512 34 278 1.0 7.0 0.00 0.00 0.00 75 1005.0
20260505100030 34 294 2.0 9.0 0.00 0.00 0.00 74 1004.8
20260505095510 34 294 3.0 10.0 0.00 0.00 0.00 73 1004.8
20260505095013 35 272 1.0 10.0 0.00 0.00 0.00 73 1004.8
20260505094531 35 286 2.0 10.0 0.00 0.00 0.00 72 1004.7
20260505094010 35 245 1.0 4.0 0.00 0.00 0.00 72 1004.7
20260505093511 35 0 1.0 5.0 0.00 0.00 0.00 71 1004.7
20260505093031 35 269 2.0 5.0 0.00 0.00 0.00 71 1004.6
20260505092514 35 255 2.0 4.0 0.00 0.00 0.00 70 1004.5
20260505092013 36 255 1.0 3.0 0.00 0.00 0.00 70 1004.4
20260505091530 36 255 1.0 3.0 0.00 0.00 0.00 71 1004.4
20260505091011 36 255 1.0 3.0 0.00 0.00 0.00 71 1004.3
20260505090509 36 255 0.0 2.0 0.00 0.00 0.00 71 1004.3
20260505090033 36 255 1.0 2.0 0.00 0.00 0.00 72 1004.2
20260505085513 36 255 1.0 2.0 0.00 0.00 0.00 71 1004.3
20260505085012 36 0 0.0 2.0 0.00 0.00 0.00 71 1004.1
20260505084543 36 0 0.0 2.0 0.00 0.00 0.00 71 1004.1
20260505084011 36 0 0.0 2.0 0.00 0.00 0.00 71 1004.0
20260505083511 36 0 0.0 2.0 0.00 0.00 0.00 71 1004.1
20260505083033 36 0 0.0 2.0 0.00 0.00 0.00 70 1004.1
20260505082510 36 0 0.0 2.0 0.00 0.00 0.00 70 1004.0
20260505082010 37 255 0.0 1.0 0.00 0.00 0.00 69 1004.1
20260505081533 37 0 0.0 2.0 0.00 0.00 0.00 69 1004.0
20260505081011 37 0 0.0 2.0 0.00 0.00 0.00 69 1004.0
20260505080513 37 255 0.0 6.0 0.00 0.00 0.00 69 1003.9
20260505080029 37 0 1.0 6.0 0.00 0.00 0.00 67 1003.9
20260505075509 37 255 1.0 6.0 0.00 0.00 0.00 65 1003.9
20260505075013 37 315 1.0 4.0 0.00 0.00 0.00 65 1003.9
20260505074531 37 276 1.0 4.0 0.00 0.00 0.00 65 1003.9
20260505074009 37 323 0.0 4.0 0.00 0.00 0.00 65 1003.9
20260505073512 37 267 1.0 7.0 0.00 0.00 0.00 64 1003.9
20260505073033 37 0 1.0 7.0 0.00 0.00 0.00 63 1003.9
20260505072512 38 281 2.0 6.0 0.00 0.00 0.00 63 1003.9
20260505072015 38 306 1.0 6.0 0.00 0.00 0.00 63 1004.0
20260505071533 38 290 1.0 6.0 0.00 0.00 0.00 62 1004.0
20260505071011 38 296 1.0 7.0 0.00 0.00 0.00 62 1004.0
20260505070514 38 0 1.0 7.0 0.00 0.00 0.00 62 1004.0
20260505070040 38 258 1.0 6.0 0.00 0.00 0.00 62 1004.0
20260505065516 38 294 2.0 6.0 0.00 0.00 0.00 62 1004.1
20260505065012 38 262 2.0 7.0 0.00 0.00 0.00 61 1004.1
20260505064531 38 273 3.0 7.0 0.00 0.00 0.00 61 1004.1
20260505064017 38 261 3.0 7.0 0.00 0.00 0.00 61 1004.1
20260505063512 38 254 2.0 10.0 0.00 0.00 0.00 60 1004.0
20260505063034 39 260 3.0 10.0 0.00 0.00 0.00 60 1004.1
20260505062512 39 280 2.0 10.0 0.00 0.00 0.00 61 1004.2
20260505062015 39 258 1.0 8.0 0.00 0.00 0.00 60 1004.1
20260505061531 39 241 3.0 8.0 0.00 0.00 0.00 59 1004.2
20260505061012 39 264 2.0 9.0 0.00 0.00 0.00 58 1004.1
20260505060512 39 277 4.0 9.0 0.00 0.00 0.00 58 1004.1
20260505060036 39 261 4.0 9.0 0.00 0.00 0.00 58 1004.0
20260505055513 40 295 2.0 9.0 0.00 0.00 0.00 59 1004.1
20260505055016 40 259 3.0 8.0 0.00 0.00 0.00 59 1004.0
20260505054532 40 266 2.0 9.0 0.00 0.00 0.00 60 1004.0
20260505054019 40 261 4.0 9.0 0.00 0.00 0.00 59 1004.0
20260505053515 40 273 3.0 8.0 0.00 0.00 0.00 59 1003.9
20260505053054 40 281 3.0 8.0 0.00 0.00 0.00 59 1003.8
20260505052511 40 271 2.0 6.0 0.00 0.00 0.00 59 1003.8
20260505052016 40 260 3.0 6.0 0.00 0.00 0.00 60 1003.7
20260505051530 40 265 1.0 7.0 0.00 0.00 0.00 59 1003.7
20260505051011 41 258 1.0 7.0 0.00 0.00 0.00 59 1003.6
20260505050512 40 286 3.0 7.0 0.00 0.00 0.00 59 1003.7
20260505041539 40 265 1.0 4.0 0.00 0.00 0.00 59 1003.6
20260505041010 40 265 1.0 6.0 0.00 0.00 0.00 59 1003.6
20260505040510 40 265 1.0 6.0 0.00 0.00 0.00 59 1003.7
20260505040032 40 265 1.0 7.0 0.00 0.00 0.00 59 1003.7
20260505035510 40 265 2.0 7.0 0.00 0.00 0.00 58 1003.6
20260505035010 40 272 3.0 7.0 0.00 0.00 0.00 57 1003.6
20260505034533 40 262 2.0 7.0 0.00 0.00 0.00 58 1003.6
20260505034012 40 258 2.0 7.0 0.00 0.00 0.00 57 1003.6
20260505033521 40 273 2.0 6.0 0.00 0.00 0.00 57 1003.7
20260505033030 40 259 3.0 7.0 0.00 0.00 0.00 57 1003.6
20260505032510 40 264 3.0 7.0 0.00 0.00 0.00 57 1003.6
20260505032011 40 265 3.0 6.0 0.00 0.00 0.00 58 1003.6
20260505031529 41 264 2.0 6.0 0.00 0.00 0.00 57 1003.5
20260505031015 41 264 2.0 6.0 0.00 0.00 0.00 57 1003.6
20260505030511 41 252 2.0 8.0 0.00 0.00 0.00 56 1003.5
20260505030032 41 286 2.0 8.0 0.00 0.00 0.00 56 1003.5
20260505025510 41 276 3.0 8.0 0.00 0.00 0.00 56 1003.5
20260505025011 41 275 2.0 8.0 0.00 0.00 0.00 56 1003.5
20260505024529 41 269 3.0 11.0 0.00 0.00 0.00 54 1003.5
20260505024008 42 284 3.0 11.0 0.00 0.00 0.00 55 1003.5
20260505023510 42 253 4.0 9.0 0.00 0.00 0.00 53 1003.4
20260505023031 41 273 3.0 7.0 0.00 0.00 0.00 55 1003.4
20260505022510 42 265 2.0 8.0 0.00 0.00 0.00 55 1003.3
20260505022013 42 278 2.0 11.0 0.00 0.00 0.00 55 1003.3
20260505021532 42 274 2.0 11.0 0.00 0.00 0.00 54 1003.1
20260505021007 42 245 4.0 11.0 0.00 0.00 0.00 55 1003.0
20260505020512 42 267 4.0 10.0 0.00 0.00 0.00 54 1002.9
20260505020030 42 269 3.0 9.0 0.00 0.00 0.00 54 1002.9
20260505015511 42 286 4.0 9.0 0.00 0.00 0.00 54 1002.9
20260505015014 42 278 4.0 10.0 0.00 0.00 0.00 54 1002.8
20260505014530 42 261 3.0 10.0 0.00 0.00 0.00 54 1002.8
20260505014011 42 259 4.0 10.0 0.00 0.00 0.00 54 1002.8
20260505013510 42 267 4.0 10.0 0.00 0.00 0.00 54 1002.7
20260505013030 42 300 2.0 11.0 0.00 0.00 0.00 54 1002.5
20260505012511 43 273 5.0 11.0 0.00 0.00 0.00 54 1002.6
20260505012010 43 292 5.0 11.0 0.00 0.00 0.00 53 1002.6
20260505011553 43 269 4.0 12.0 0.00 0.00 0.00 54 1002.5
20260505011010 43 302 5.0 12.0 0.00 0.00 0.00 55 1002.4
20260505010517 44 298 5.0 14.0 0.00 0.00 0.00 54 1002.4
20260505010029 44 285 5.0 14.0 0.00 0.00 0.00 54 1002.3
20260505005511 44 228 6.0 14.0 0.00 0.00 0.00 54 1002.3
20260505005010 44 250 5.0 12.0 0.00 0.00 0.00 55 1002.2
20260505004530 44 240 4.0 12.0 0.00 0.00 0.00 55 1002.2
20260505004009 44 280 5.0 10.0 0.00 0.00 0.00 54 1002.1
20260505003512 44 262 4.0 11.0 0.00 0.00 0.00 55 1002.1
20260505003030 44 265 4.0 11.0 0.00 0.00 0.00 55 1002.0
20260505002511 44 274 7.0 14.0 0.00 0.00 0.00 53 1001.9
20260505002016 45 276 7.0 14.0 0.00 0.00 0.00 51 1001.8
20260505001532 45 258 7.0 14.0 0.00 0.00 0.00 50 1001.7
20260505001015 46 298 5.0 11.0 0.00 0.00 0.00 50 1001.7
20260505000514 46 252 5.0 11.0 0.00 0.00 0.00 52 1001.6
20260505000038 47 297 3.0 11.0 0.00 0.00 0.00 54 1001.3
20260504235510 47 300 3.0 16.0 0.00 0.00 0.00 54 1001.4
20260504235011 47 249 4.0 16.0 0.00 0.00 0.00 54 1001.3
20260504234530 47 281 5.0 16.0 0.00 0.00 0.00 54 1001.2
20260504234010 47 255 5.0 16.0 0.00 0.00 0.00 55 1001.1
20260504233508 48 268 6.0 16.0 0.00 0.00 0.00 55 1001.1
20260504233031 48 277 5.0 13.0 0.00 0.00 0.00 56 1000.9
20260504232511 48 282 5.0 12.0 0.00 0.00 0.00 53 1000.9
20260504232015 49 248 3.0 11.0 0.00 0.00 0.00 53 1000.8
20260504231528 49 296 2.0 10.0 0.00 0.00 0.00 54 1000.6
20260504231009 49 290 3.0 12.0 0.00 0.00 0.00 51 1000.6
20260504230510 49 298 3.0 13.0 0.00 0.00 0.00 50 1000.4
20260504230033 50 286 6.0 13.0 0.00 0.00 0.00 50 1000.4
20260504225511 50 298 3.0 13.0 0.00 0.00 0.00 50 1000.5
20260504225013 50 278 5.0 13.0 0.00 0.00 0.00 48 1000.3
20260504224533 50 291 2.0 14.0 0.00 0.00 0.00 50 1000.3
20260504224010 50 271 3.0 15.0 0.00 0.00 0.00 49 1000.2
20260504223511 50 285 4.0 18.0 0.00 0.00 0.00 47 1000.2
20260504223030 51 246 4.0 18.0 0.00 0.00 0.00 47 1000.2
20260504222509 51 274 7.0 18.0 0.00 0.00 0.00 47 1000.1
20260504222012 51 269 6.0 15.0 0.00 0.00 0.00 46 1000.0
20260504221529 51 243 7.0 14.0 0.00 0.00 0.00 43 1000.0
20260504221017 52 290 4.0 12.0 0.00 0.00 0.00 45 999.8
20260504220514 52 248 3.0 12.0 0.00 0.00 0.00 47 999.7
20260504220034 52 302 6.0 13.0 0.00 0.00 0.00 46 999.6
20260504215510 51 285 4.0 15.0 0.00 0.00 0.00 48 999.6
20260504215014 52 301 5.0 16.0 0.00 0.00 0.00 46 999.6
20260504214529 52 277 5.0 16.0 0.00 0.00 0.00 46 999.5
20260504214007 52 279 6.0 16.0 0.00 0.00 0.00 44 999.6
20260504213514 53 242 7.0 15.0 0.00 0.00 0.00 46 999.5
20260504213034 53 290 5.0 19.0 0.00 0.00 0.00 43 999.2
20260504212515 54 270 7.0 19.0 0.00 0.00 0.00 43 999.2
20260504212010 54 259 6.0 13.0 0.00 0.00 0.00 46 999.1
20260504211528 53 286 5.0 13.0 0.00 0.00 0.00 46 998.9
20260504211009 53 352 4.0 13.0 0.00 0.00 0.00 47 999.0
20260504210511 53 294 5.0 13.0 0.00 0.00 0.00 46 998.9
20260504210028 54 198 4.0 13.0 0.00 0.00 0.00 47 998.7
20260504205511 54 259 5.0 15.0 0.00 0.00 0.00 46 998.6
20260504205014 54 256 6.0 15.0 0.00 0.00 0.00 46 998.7
20260504204527 54 289 5.0 14.0 0.00 0.00 0.00 47 998.6
20260504204012 53 310 5.0 15.0 0.00 0.00 0.00 46 998.5
20260504203514 53 275 5.0 15.0 0.00 0.00 0.00 46 998.5
20260504203031 54 286 8.0 17.0 0.00 0.00 0.00 45 998.3
20260504202509 54 291 7.0 17.0 0.00 0.00 0.00 45 998.4
20260504202013 54 230 8.0 17.0 0.00 0.00 0.00 44 998.4
20260504201528 54 259 7.0 16.0 0.00 0.00 0.00 44 998.2
20260504201013 54 287 4.0 14.0 0.00 0.00 0.00 46 998.1
20260504200511 55 275 5.0 14.0 0.00 0.00 0.00 46 998.0
20260504200030 56 261 4.0 16.0 0.00 0.00 0.00 44 998.0
20260504195510 57 307 5.0 16.0 0.00 0.00 0.00 45 997.8
20260504195012 56 272 6.0 16.0 0.00 0.00 0.00 44 997.7
20260504194533 56 269 7.0 17.0 0.00 0.00 0.00 45 997.7
20260504194009 56 270 6.0 17.0 0.00 0.00 0.00 48 997.4
20260504193511 57 270 7.0 17.0 0.00 0.00 0.00 47 997.6
20260504193029 57 267 7.0 15.0 0.00 0.00 0.00 43 997.4
20260504192510 57 305 7.0 19.0 0.00 0.00 0.00 44 997.2
20260504192013 57 257 5.0 19.0 0.00 0.00 0.00 45 997.2
20260504191531 58 297 7.0 19.0 0.00 0.00 0.00 43 997.1
20260504191012 59 244 6.0 13.0 0.00 0.00 0.00 44 997.0
20260504190513 58 217 4.0 13.0 0.00 0.00 0.00 47 996.9
20260504190030 58 252 7.0 15.0 0.00 0.00 0.00 45 996.9
20260504185510 58 281 7.0 15.0 0.00 0.00 0.00 45 996.8
20260504185012 58 269 5.0 13.0 0.00 0.00 0.00 45 996.7
20260504184530 58 306 4.0 14.0 0.00 0.00 0.00 49 996.7
20260504184014 58 306 5.0 15.0 0.00 0.00 0.00 47 996.7
20260504183514 58 304 6.0 15.0 0.00 0.00 0.00 47 996.4
20260504183029 58 291 5.0 15.0 0.00 0.00 0.00 46 996.4
20260504182513 58 281 4.0 14.0 0.00 0.00 0.00 50 996.4
20260504182015 57 289 6.0 14.0 0.00 0.00 0.00 48 996.2
20260504181531 57 190 6.0 14.0 0.00 0.00 0.00 46 996.3